Tallahassee, FL

9:44 AM EDT on June 24, 2018 (GMT -0400)
Tallahassee Regional

Weather History for KTLH - September, 2017

Change the Weather History Date:

Thursday, September 14, 2017

  Actual Average Record
Temperature  
Mean Temperature 78 °F 79 °F  
Max Temperature 88 °F 89 °F 98 °F (1991)
Min Temperature 68 °F 69 °F 54 °F (1969)
Degree Days  
Heating Degree Days 0    
Month to date heating degree days 1  
Since 1 July heating degree days 1  
Cooling Degree Days 13    
Month to date cooling degree days 166  
Year to date cooling degree days 2344  
Growing Degree Days 28 (Base 50)    
Moisture  
Dew Point 71 °F    
Average Humidity 81    
Maximum Humidity 100    
Minimum Humidity 61    
Precipitation  
Precipitation 0.09 in 0.16 in 3.62 in (1900)
Month to date precipitation 3.40 2.40  
Year to date precipitation 48.67 46.31  
Sea Level Pressure  
Sea Level Pressure 29.95 in    
Wind  
Wind Speed 1 mph (South)    
Max Wind Speed 13 mph    
Max Gust Speed 15 mph    
Visibility 6 miles    
Events Fog , Rain    
T = Trace of Precipitation, MM = Missing Value Source: NWS Daily Summary

Daily Weather History Graph

Daily Weather History Graph

Search for Another Location

Airport or City:

Astronomy

Sep. 14, 2017 Rise Set
Actual Time 7:21 AM EDT 7:43 PM EDT
Civil Twilight 6:57 AM EDT 8:07 PM EDT
Nautical Twilight 6:29 AM EDT 8:35 PM EDT
Astronomical Twilight 6:00 AM EDT 9:04 PM EDT
Moon 1:35 AM EDT (9/14) 3:41 PM EDT (9/14)
Length of Visible Light 13h 10m
Length of Day
12h 22m
Waning Crescent, 34% of the Moon is Illuminated
Sep 14
Waning Crescent
Sep 20
New
Sep 27
First Quarter
Oct 5
Full
Oct 12
Last Quarter

Hourly Weather History & Observations

Time (EDT) Temp. Heat Index Dew Point Humidity Pressure Visibility Wind Dir Wind Speed Gust Speed Precip Events Conditions
12:44 AM 70.0 °F - 70.0 °F 100% 29.94 in 5.0 mi Calm Calm - N/A   Partly Cloudy
12:46 AM 70.0 °F - 70.0 °F 100% 29.94 in 1.8 mi Calm Calm - N/A   Partly Cloudy
12:53 AM 70.0 °F - 70.0 °F 100% 29.94 in 1.2 mi Calm Calm - N/A   Scattered Clouds
12:56 AM 70.0 °F - 70.0 °F 100% 29.94 in 4.0 mi Calm Calm - N/A   Scattered Clouds
1:08 AM 70.0 °F - 70.0 °F 100% 29.94 in 10.0 mi Calm Calm - N/A   Mostly Cloudy
1:15 AM 71.1 °F - 70.0 °F 96% 29.94 in 10.0 mi Calm Calm - N/A   Scattered Clouds
1:40 AM 71.1 °F - 70.0 °F 96% 29.94 in 10.0 mi Calm Calm - N/A   Mostly Cloudy
1:53 AM 71.1 °F - 70.0 °F 96% 29.94 in 9.0 mi Calm Calm - N/A   Overcast
2:07 AM 70.0 °F - 70.0 °F 100% 29.93 in 0.8 mi Calm Calm - N/A   Mist
2:18 AM 69.1 °F - 69.1 °F 100% 29.93 in 0.2 mi Calm Calm - N/A Fog Fog
2:27 AM 69.1 °F - 69.1 °F 100% 29.93 in 1.0 mi Calm Calm - N/A   Mist
2:34 AM 69.1 °F - 69.1 °F 100% 29.93 in 3.0 mi Calm Calm - N/A   Overcast
2:45 AM 68.0 °F - 68.0 °F 100% 29.93 in 1.5 mi Calm Calm - N/A   Overcast
2:47 AM 68.0 °F - 68.0 °F 100% 29.93 in 0.8 mi Calm Calm - N/A   Overcast
2:53 AM 68.0 °F - 68.0 °F 100% 29.93 in 0.2 mi Calm Calm - N/A Fog Fog
2:58 AM 68.0 °F - 68.0 °F 100% 29.93 in 0.5 mi Calm Calm - N/A Fog Fog
3:09 AM 70.0 °F - 70.0 °F 100% 29.93 in 2.0 mi Calm Calm - N/A   Overcast
3:12 AM 70.0 °F - 70.0 °F 100% 29.93 in 1.0 mi Calm Calm - N/A   Mist
3:19 AM 69.1 °F - 69.1 °F 100% 29.93 in 0.5 mi Calm Calm - N/A Fog Fog
3:26 AM 70.0 °F - 70.0 °F 100% 29.93 in 0.2 mi Calm Calm - N/A Fog Fog
3:43 AM 70.0 °F - 70.0 °F 100% 29.94 in 0.8 mi Calm Calm - N/A   Mist
3:53 AM 70.0 °F - 70.0 °F 100% 29.94 in 0.8 mi Calm Calm - N/A   Mist
4:00 AM 69.1 °F - 69.1 °F 100% 29.93 in 0.5 mi Calm Calm - N/A Fog Fog
4:12 AM 69.1 °F - 69.1 °F 100% 29.93 in 0.2 mi Calm Calm - N/A Fog Fog
4:31 AM 68.0 °F - 68.0 °F 100% 29.93 in 0.8 mi Calm Calm - N/A   Mist
4:38 AM 68.0 °F - 68.0 °F 100% 29.93 in 2.5 mi Calm Calm - N/A   Overcast
4:45 AM 68.0 °F - 68.0 °F 100% 29.93 in 6.0 mi Calm Calm - N/A   Overcast
4:53 AM 68.0 °F - 68.0 °F 100% 29.93 in 9.0 mi Calm Calm - N/A   Overcast
5:22 AM 68.0 °F - 68.0 °F 100% 29.94 in 10.0 mi Calm Calm - N/A   Mostly Cloudy
5:38 AM 68.0 °F - 68.0 °F 100% 29.94 in 1.8 mi ESE 3.5 mph - N/A   Mostly Cloudy
5:48 AM 68.0 °F - 68.0 °F 100% 29.94 in 0.5 mi Calm Calm - N/A Fog Fog
5:53 AM 68.0 °F - 68.0 °F 100% 29.95 in 1.2 mi Calm Calm - N/A   Overcast
5:56 AM 69.1 °F - 69.1 °F 100% 29.95 in 4.0 mi Calm Calm - N/A   Overcast
6:26 AM 69.1 °F - 69.1 °F 100% 29.95 in 10.0 mi NNW 3.5 mph - N/A Fog Patches of Fog
6:53 AM 68.0 °F - 68.0 °F 100% 29.95 in 10.0 mi Calm Calm - N/A Fog Patches of Fog
7:53 AM 70.0 °F - 70.0 °F 100% 29.97 in 10.0 mi Calm Calm - N/A Fog Patches of Fog
8:53 AM 73.0 °F - 72.0 °F 96% 29.98 in 10.0 mi Calm Calm - N/A   Partly Cloudy
9:53 AM 79.0 °F - 73.9 °F 84% 30.00 in 10.0 mi Calm Calm - N/A   Clear
10:53 AM 82.0 °F 87.9 °F 73.9 °F 76% 30.01 in 10.0 mi Calm Calm - N/A   Mostly Cloudy
11:53 AM 82.9 °F 88.8 °F 73.0 °F 72% 30.00 in 10.0 mi NNW 5.8 mph - 0.00 in   Mostly Cloudy
12:53 PM 87.1 °F 94.5 °F 73.0 °F 63% 29.98 in 10.0 mi Variable 3.5 mph - N/A   Mostly Cloudy
1:53 PM 86.0 °F 91.5 °F 71.1 °F 61% 29.96 in 10.0 mi Calm Calm - N/A   Mostly Cloudy
2:53 PM 84.9 °F 91.4 °F 73.0 °F 67% 29.96 in 10.0 mi SSE 6.9 mph - N/A   Mostly Cloudy
3:53 PM 84.0 °F 90.2 °F 73.0 °F 69% 29.94 in 10.0 mi South 4.6 mph - N/A   Overcast
4:53 PM 80.1 °F 85.1 °F 75.0 °F 85% 29.94 in 3.0 mi SSW 4.6 mph - 0.09 in Rain Rain
5:53 PM 82.9 °F 89.4 °F 73.9 °F 74% 29.94 in 10.0 mi Calm Calm - 0.00 in   Mostly Cloudy
6:53 PM 82.0 °F 89.4 °F 75.9 °F 82% 29.95 in 10.0 mi South 3.5 mph - N/A   Mostly Cloudy
7:53 PM 80.1 °F 85.4 °F 75.9 °F 87% 29.96 in 10.0 mi SSW 3.5 mph - N/A   Mostly Cloudy
8:53 PM 78.1 °F - 75.9 °F 93% 29.96 in 10.0 mi Calm Calm - N/A   Mostly Cloudy
9:53 PM 75.9 °F - 75.0 °F 97% 29.97 in 10.0 mi Calm Calm - N/A   Mostly Cloudy
10:53 PM 75.0 °F - 73.9 °F 96% 29.99 in 10.0 mi Calm Calm - N/A   Mostly Cloudy
11:53 PM 75.0 °F - 73.9 °F 96% 29.99 in 10.0 mi Calm Calm - N/A   Clear